COSMOS 2167

导读

COSMOS 2167是独联体(CIS)继承自苏联航天项目的一颗“宇宙”系列卫星,于1991年11月12日8时发射入轨。作为冷战末期苏联航天活动的收尾产物,它延续了“宇宙”系列军用航天任务的传统,承担空间技术试验与军事观测任务。该卫星见证了苏联解体前后航天领域的过渡,是独联体早期空间活动的重要见证,目前已完成设计使命,纳入空间目标监视名录。

基本信息
目录编号:
21781
目录名称:
COSMOS 2167
国际标识:
1991-077C
轨道中心:
EARTH
卫星名称:
COSMOS 2167
卫星全名:
--
卫星状态:
在轨 (已飞行12634 天)
发射日期:
1991-11-12 UTC
国别 :
俄罗斯(独联体) (CIS)
星等 :
--
轨道信息
数据来源 国际轨道数据 AOE轨道数据
星历时间 2026-06-15T07:22:39+0800
7小时前
查看轨道信息
2026-06-14T02:00:00+0800
1天前
查看轨道信息
半长轴 7783.416km 7783.416km
偏心率 0.0008162 0.0008047
轨道倾角 82.605° 82.606°
近地点辐角 89.629° 91.590°
升交点赤经 242.125° 242.905°
平近点角 84.041° 273.586°
近地点 1398.926km 1399.015km
远地点 1411.632km 1411.543km
周期 113.898分钟 113.898分钟
每日圈数 12.642921 12.642921
详细信息
使用方式:
暂无
2D轨道图
3D轨道图
轨道高度分析图
轨道倾角分析图
轨道综合分析图
查看轨道综合分析图